GFSMW_250_rhum_171.txt.gz
RH
6 6 10 12 14 16 38 62 82 97 92 75 72 91 97 100 100 100 100 100 100 100 100 98 100 100 100 99 95 98 96 97 97 88 74 66 64 70 75 64 70 66 40
4 6 8 12 14 16 23 57 68 91 100 84 74 73 96 100 100 100 100 100 100 100 100 100 100 100 100 96 100 100 98 96 90 79 68 63 64 73 66 60 62 53 38
4 5 7 11 14 16 18 44 81 67 96 90 83 76 87 100 100 100 100 100 100 100 100 100 100 100 100 100 100 100 94 93 79 84 72 62 64 66 63 60 48 40 41
4 4 7 10 12 17 17 36 76 78 82 100 99 88 89 100 100 100 100 100 100 100 100 100 100 100 100 100 96 100 87 82 84 79 67 64 56 60 66 51 43 38 35
4 5 7 11 12 17 18 32 52 72 82 99 99 92 88 89 97 96 100 100 100 100 100 100 100 100 100 100 95 90 89 92 84 72 66 58 68 66 72 51 40 34 30
4 5 6 12 12 16 16 20 43 62 84 83 82 97 83 86 87 72 73 100 100 100 100 100 100 100 100 99 86 80 97 87 82 70 60 73 60 42 46 44 38 33 31
5 4 5 10 13 15 17 16 36 46 65 91 98 100 94 91 91 82 73 97 100 100 100 100 100 100 100 90 84 95 87 96 82 60 57 50 36 35 35 41 39 38 44
5 5 5 11 15 14 16 16 28 48 57 68 100 100 100 99 93 84 81 98 100 100 100 100 100 100 89 90 83 84 96 97 79 52 41 35 35 36 35 37 37 45 42
5 5 6 11 13 15 16 16 22 46 55 79 97 100 96 100 100 100 99 100 100 100 100 100 100 100 96 93 92 90 100 93 64 39 36 33 32 34 36 36 37 35 34
6 6 7 11 14 18 23 18 22 43 57 72 74 69 100 100 100 100 100 100 96 100 76 75 100 100 100 89 79 100 100 81 48 31 29 29 30 30 30 34 35 35 35
6 7 8 14 16 21 17 18 22 38 52 59 62 100 100 100 100 100 100 82 100 76 75 100 100 96 93 85 99 100 99 64 49 28 29 31 32 31 30 34 36 38 36
7 8 10 17 20 16 18 19 20 29 49 54 62 82 94 73 100 100 100 94 96 100 100 100 100 100 96 100 100 100 84 60 45 32 32 32 34 34 36 37 42 40 42
10 11 10 16 11 17 22 16 18 34 49 51 54 72 95 95 100 100 100 100 100 100 100 100 100 100 100 100 93 83 77 53 42 37 37 37 37 36 38 43 43 44 44
9 9 10 14 16 37 20 16 22 39 50 52 56 67 80 88 100 100 100 100 100 100 100 100 100 100 100 100 100 83 60 52 41 39 37 37 35 41 46 48 45 45 48
8 9 10 12 17 18 16 17 30 43 57 58 51 62 73 82 98 100 100 100 100 100 96 100 100 100 100 100 90 66 55 49 40 37 37 36 40 44 49 44 48 52 51
11 10 11 15 20 18 17 21 42 62 62 60 84 73 76 79 86 100 100 96 91 92 100 100 100 100 100 88 67 59 54 48 41 40 39 43 46 53 45 53 51 47 42
15 15 15 19 20 22 22 30 48 66 79 75 80 80 70 71 76 80 84 78 91 95 100 100 100 98 70 60 58 54 48 45 43 46 46 52 54 54 58 55 48 44 41
20 19 20 21 22 24 30 45 66 79 97 100 99 69 68 74 78 71 70 73 78 74 84 97 82 65 60 57 53 48 46 44 49 45 50 52 54 55 48 49 50 39 38
15 18 22 23 25 32 49 50 73 82 100 73 64 52 51 61 61 59 64 69 64 57 70 71 61 59 54 49 47 44 45 48 48 46 48 50 48 53 54 44 39 42 38
22 25 25 29 34 40 41 49 77 73 74 53 61 74 85 73 60 62 62 56 51 49 51 55 53 49 48 44 39 43 43 51 58 61 54 50 54 50 42 42 42 37 27
25 28 29 34 34 34 40 54 61 52 57 51 47 48 56 60 61 60 57 51 46 47 49 46 46 44 41 41 44 47 50 53 58 55 60 59 52 47 47 40 32 23 24
29 30 33 35 36 34 34 36 40 45 50 56 57 62 68 68 65 58 54 52 52 50 46 46 43 42 42 49 47 48 54 52 55 63 59 52 51 44 39 30 27 27 22
30 33 35 37 34 32 34 36 39 49 54 59 65 65 65 63 60 59 57 54 51 48 46 45 43 44 44 40 44 48 51 62 63 52 51 48 42 38 32 30 27 19 13
28 32 40 40 40 38 35 37 42 48 55 63 67 66 64 62 59 58 56 53 49 47 47 48 47 46 46 50 58 69 62 59 59 53 44 43 40 35 32 23 15 13 13
30 32 34 40 39 41 42 42 43 44 47 56 62 63 62 62 60 55 51 49 49 48 48 48 47 52 63 67 63 68 72 56 48 47 46 41 35 28 21 16 14 14 11
47 37 34 34 36 36 36 37 37 38 42 45 45 44 45 45 46 47 45 44 46 46 50 57 62 66 62 68 66 54 51 51 45 42 39 32 24 18 15 13 13 10 7

GFSMW_250_rhum_174.txt.gz
RH
3 3 5 7 11 12 16 18 19 94 93 74 76 76 100 100 100 100 100 100 100 100 100 100 100 100 100 100 100 100 100 99 93 92 90 98 84 79 70 58 57 61 59
4 4 3 5 9 11 14 16 17 20 99 99 100 96 100 100 98 100 100 100 100 100 100 100 100 100 100 100 100 100 100 98 98 89 84 80 84 81 64 60 66 59 62
3 4 3 3 7 10 12 16 16 20 25 60 100 86 100 100 100 100 100 100 100 100 100 100 100 100 100 100 100 100 100 100 97 84 78 80 83 78 66 69 63 57 58
2 3 4 3 6 9 11 14 19 16 94 100 56 100 100 91 92 99 100 100 100 100 100 100 100 100 100 100 100 100 100 100 99 91 83 88 84 86 65 77 60 54 38
2 3 3 4 5 8 10 13 19 20 28 89 77 100 100 100 100 100 99 97 100 100 100 100 100 100 100 100 100 100 100 100 98 95 85 83 86 80 80 86 62 44 37
2 2 3 4 4 7 9 12 18 22 50 100 100 100 100 100 100 96 90 86 98 100 100 100 100 100 100 100 100 100 100 100 94 86 88 85 86 88 100 82 61 42 39
2 2 2 4 5 6 9 13 16 21 42 100 100 100 99 100 100 100 98 94 100 100 100 100 100 100 99 100 100 100 100 100 88 95 90 86 94 94 100 74 48 33 32
2 2 3 4 6 7 11 15 16 22 97 56 27 70 100 100 100 100 100 100 100 100 100 100 93 88 93 100 100 100 100 92 94 100 99 90 96 100 99 80 65 42 35
2 2 3 5 6 8 14 17 18 22 96 44 87 58 100 100 100 100 100 100 100 100 100 100 100 100 100 100 100 100 100 99 77 94 95 84 97 100 100 89 71 59 39
2 2 4 6 6 10 16 19 19 77 100 100 94 87 100 100 100 100 100 100 100 100 100 100 100 100 100 100 100 100 95 69 83 92 86 100 100 100 92 86 82 59 44
2 4 5 7 7 12 18 21 20 33 36 56 80 93 100 100 100 100 100 100 100 100 100 100 100 100 100 90 81 100 72 74 91 86 100 100 100 99 98 86 66 58 50
5 6 6 7 9 14 20 35 24 25 26 39 62 71 100 100 78 95 100 100 100 100 100 100 100 100 88 99 100 76 83 90 80 100 100 100 100 100 95 81 62 58 48
7 7 7 8 11 18 24 22 28 23 27 48 53 79 85 88 96 100 100 100 100 100 100 100 100 100 100 100 91 100 100 94 100 100 100 100 100 100 88 68 60 51 44
7 7 8 11 10 21 27 35 24 28 29 26 31 32 52 73 99 100 100 100 93 99 100 100 100 100 90 97 100 100 100 100 100 100 100 100 100 90 66 55 49 44 39
9 8 10 14 21 29 42 50 60 100 78 41 27 39 57 73 82 100 100 99 100 100 100 100 100 100 100 100 100 95 92 100 98 100 100 100 88 65 57 51 44 38 34
12 13 14 22 35 43 56 51 68 89 56 30 29 50 64 68 70 74 78 100 100 100 100 100 100 100 100 100 90 96 100 98 100 100 100 87 71 59 50 45 38 36 34
15 16 30 48 51 68 69 68 50 37 34 23 30 47 69 69 66 80 84 81 83 89 98 96 97 98 93 98 100 100 100 100 84 88 85 68 60 49 46 40 41 42 38
16 27 29 35 50 82 78 46 37 34 20 26 42 73 79 77 74 80 77 71 69 80 83 87 92 97 99 99 93 100 99 81 68 62 59 56 50 46 42 41 40 40 48
21 20 31 50 52 47 41 46 26 35 36 50 69 88 84 81 77 70 72 69 66 68 71 83 86 85 82 88 96 86 74 61 55 52 47 50 44 43 45 45 42 44 48
45 39 36 48 39 38 37 28 31 39 39 66 83 89 100 100 100 84 64 61 61 62 66 75 78 84 77 76 75 67 60 54 53 52 49 46 45 45 46 47 48 48 43
70 72 46 44 36 37 53 51 48 42 52 80 86 88 92 100 84 78 88 74 64 68 69 97 91 80 70 70 67 62 55 54 55 52 49 51 52 51 51 50 47 44 35
51 76 95 69 57 68 80 66 52 65 72 79 84 86 90 78 70 73 66 56 65 68 82 97 86 69 71 66 61 56 58 57 54 51 49 48 53 50 49 49 43 32 30
43 47 45 54 79 64 49 53 52 54 66 82 73 66 62 61 64 69 77 79 72 84 82 74 74 72 67 62 60 61 59 52 48 49 50 52 51 54 52 49 49 34 28
38 37 44 39 46 51 48 55 50 60 68 56 51 52 57 63 66 71 69 68 71 78 81 73 66 65 62 59 56 51 47 50 54 51 50 60 63 69 66 46 32 28 22
38 39 37 44 44 36 41 43 48 41 38 38 38 42 56 64 66 63 66 71 72 68 66 65 60 54 51 51 49 51 56 50 54 63 70 71 64 47 37 34 26 20 14
54 48 46 48 41 44 51 49 56 56 49 46 48 56 57 49 52 56 59 60 62 60 53 47 48 53 54 54 54 49 54 61 74 77 60 44 38 32 28 22 17 13 12

GFSMW_250_rhum_177.txt.gz
RH
4 4 5 4 5 6 8 9 14 13 30 97 97 100 100 100 100 100 100 99 100 100 100 100 100 100 100 100 100 100 100 100 100 100 100 97 95 89 95 93 85 75 62
4 5 5 5 4 5 6 8 14 13 15 98 100 100 100 100 100 93 94 96 100 100 100 100 100 100 100 100 100 100 100 100 100 100 92 100 100 95 88 75 92 84 67
4 4 4 5 4 4 5 8 11 14 14 39 100 100 100 100 100 100 100 96 100 100 100 100 100 100 100 100 100 100 100 100 100 100 100 100 100 98 92 85 83 94 73
4 3 3 4 3 4 5 8 10 15 16 24 99 100 100 100 96 100 100 100 100 100 100 100 100 100 100 100 100 100 100 100 100 100 100 100 100 100 84 86 97 89 75
3 2 2 3 3 4 5 8 9 14 18 21 39 68 98 100 100 99 100 100 100 100 100 100 100 100 100 100 100 100 100 100 100 100 100 100 100 98 92 92 94 85 87
2 2 2 2 2 4 5 6 9 13 19 22 28 83 100 100 100 72 100 100 100 100 100 100 100 97 100 100 100 100 100 100 100 100 100 100 100 97 85 71 79 73 94
2 2 2 2 2 3 4 6 9 13 20 21 26 92 100 100 100 99 100 100 100 100 100 100 94 96 99 100 100 100 100 100 100 100 100 100 98 94 70 73 61 93 87
2 2 2 2 2 3 4 6 9 13 18 22 25 93 100 100 87 85 100 100 100 100 100 100 100 100 100 100 100 100 100 100 100 100 100 100 100 87 76 72 73 89 100
2 2 2 2 2 3 4 6 9 14 18 21 23 24 61 78 100 99 100 100 100 100 100 100 100 100 100 100 100 100 100 100 100 100 100 100 89 82 69 68 79 96 100
2 2 2 2 2 4 5 6 11 15 17 20 24 25 30 56 92 82 94 100 100 100 100 100 100 100 100 100 100 100 100 100 94 100 100 98 91 62 58 72 89 100 100
2 2 2 2 2 4 6 9 13 16 18 22 24 29 56 100 100 100 100 100 100 100 100 100 100 100 100 100 100 100 100 90 88 100 96 100 91 70 73 99 100 100 100
2 2 2 2 4 6 7 12 17 20 22 21 27 46 100 100 100 100 100 100 100 100 100 100 100 100 100 100 100 100 97 100 100 100 79 70 92 98 100 100 100 100 98
2 2 2 3 5 7 11 16 24 26 21 28 100 100 100 100 100 100 84 98 100 100 100 100 100 100 100 100 100 100 100 93 97 86 81 81 96 100 100 97 97 94 93
4 4 3 4 6 10 13 22 30 27 25 33 100 100 100 100 94 93 72 58 79 95 100 100 100 100 100 100 100 100 97 85 89 100 99 100 100 100 95 90 99 95 89
7 6 5 6 7 13 19 43 99 49 33 31 55 100 100 100 96 53 75 96 92 92 100 100 100 100 100 100 100 100 100 98 88 85 95 94 100 96 99 100 96 94 87
8 8 7 7 9 19 32 35 43 34 33 82 100 100 100 100 72 66 91 92 100 100 98 86 96 100 100 100 100 100 100 93 100 100 100 100 100 100 100 88 90 79 69
10 11 11 14 24 29 39 50 33 40 48 75 99 95 70 74 95 93 66 98 100 100 100 100 100 99 94 93 92 100 99 98 100 100 97 100 99 90 83 82 73 68 63
15 16 21 37 41 61 65 55 42 43 54 85 100 97 67 78 64 75 98 96 100 100 100 94 100 100 94 81 92 100 100 94 92 92 92 91 90 81 76 73 65 62 51
100 100 90 69 68 70 97 99 52 68 89 100 100 80 69 64 60 80 93 89 99 100 100 100 100 100 95 90 94 90 76 79 82 83 92 90 82 79 65 64 60 53 49
75 100 100 100 100 93 98 98 87 97 74 38 48 68 51 46 46 57 58 85 95 94 88 87 94 95 87 81 78 78 75 82 80 70 82 86 74 63 64 57 51 48 45
43 97 100 100 100 100 100 100 90 72 91 68 61 45 83 94 69 51 62 81 85 96 99 88 81 84 84 76 79 83 68 68 66 69 66 67 69 64 54 49 46 44 46
64 55 90 100 100 100 100 100 100 97 74 85 58 43 73 84 64 67 78 94 89 91 70 75 72 72 74 77 69 64 65 68 66 72 75 68 61 51 48 45 44 48 45
74 68 98 82 81 87 100 100 100 100 93 63 75 66 77 73 78 90 83 82 86 82 75 73 70 66 63 75 74 74 70 76 77 70 64 50 47 49 46 47 51 42 43
100 98 83 98 91 82 81 100 100 100 95 86 71 60 70 84 67 68 89 95 92 71 61 62 68 77 81 85 74 76 79 74 63 52 49 54 50 48 52 51 44 43 32
93 100 100 83 98 98 100 92 79 82 78 86 85 80 84 76 60 76 81 62 60 61 60 63 73 77 66 71 69 61 52 51 51 56 49 48 53 54 47 43 35 26 24
70 80 69 92 100 100 100 100 91 85 80 74 92 91 77 53 50 49 50 56 51 50 60 70 68 61 57 52 48 50 55 56 50 49 54 60 53 47 41 34 26 23 17

GFSMW_250_rhum_180.txt.gz
RH
11 8 6 6 5 5 5 5 7 8 10 12 12 15 21 100 100 100 98 100 100 100 100 100 100 100 100 100 98 100 100 100 100 100 100 100 100 100 88 99 96 98 88
7 6 5 4 4 4 4 4 5 7 9 11 12 14 19 87 100 100 100 94 100 100 100 100 100 100 100 100 100 100 100 100 100 100 100 100 100 100 100 100 100 100 98
6 5 4 4 4 4 4 4 5 6 8 9 12 13 18 100 100 95 100 98 100 100 83 100 100 100 100 100 100 100 100 100 100 100 100 100 100 100 100 100 100 100 100
5 4 4 4 5 5 4 4 5 6 7 8 12 13 23 100 99 100 100 96 98 100 100 100 100 100 100 100 100 100 100 100 100 100 100 100 100 100 100 100 100 91 92
4 4 4 4 4 5 4 4 5 6 6 8 13 13 19 100 100 100 100 100 100 100 100 100 100 100 100 100 100 100 100 100 100 100 100 100 100 100 100 100 97 100 91
4 4 4 3 3 3 5 5 4 6 5 7 12 13 18 61 100 85 100 100 100 100 100 100 100 100 100 100 100 100 100 100 100 100 100 100 100 100 100 100 100 100 94
3 3 3 2 3 3 3 4 4 6 7 8 13 14 20 76 99 100 100 100 95 98 100 100 100 100 100 100 100 100 100 100 100 100 100 100 100 100 100 100 100 100 72
3 2 3 2 2 2 2 2 4 6 6 9 13 17 28 88 100 93 100 99 85 99 100 100 100 100 100 100 100 100 100 100 100 100 100 97 89 93 99 100 91 81 93
3 2 2 2 2 2 2 2 4 5 6 9 13 18 66 99 100 100 100 100 100 100 100 100 100 97 98 100 100 100 100 100 100 100 100 100 100 100 100 100 86 99 86
3 2 2 2 2 2 2 2 4 5 7 10 14 16 44 99 100 100 100 100 100 100 100 99 71 99 100 100 100 100 100 100 100 100 100 100 100 100 99 100 100 95 91
3 2 2 2 2 2 2 2 4 6 8 12 15 18 26 59 100 100 100 100 100 100 90 75 96 100 99 100 100 100 100 100 100 100 100 100 100 99 100 100 100 100 80
2 2 2 2 2 2 2 3 5 8 10 15 20 27 30 41 93 100 100 100 98 91 71 99 100 84 73 100 100 100 100 100 100 100 100 100 100 100 100 95 84 90 87
2 2 2 2 2 2 3 5 7 10 14 17 19 28 27 38 69 100 100 100 100 100 100 100 100 93 75 100 100 100 100 100 100 100 100 100 96 95 97 87 86 89 96
3 2 2 2 2 3 4 7 10 15 20 19 22 31 41 44 68 99 89 100 100 100 100 100 100 93 100 100 100 100 100 100 100 100 100 100 100 100 87 82 88 90 90
5 3 2 2 3 5 6 11 16 21 22 22 25 31 41 38 40 54 98 100 100 100 100 100 100 100 100 100 100 100 100 100 100 100 100 100 100 92 85 75 90 95 94
6 3 2 4 6 6 9 14 19 23 28 24 29 31 46 61 36 36 57 99 59 89 100 98 79 82 88 98 93 100 99 97 100 100 100 87 73 80 90 84 100 100 100
7 5 5 6 7 10 17 22 24 26 28 36 28 39 40 33 38 44 100 100 100 100 79 87 77 62 79 82 79 84 94 90 86 95 93 97 90 83 93 97 100 93 83
9 8 9 11 14 21 25 36 32 27 28 26 27 34 46 54 100 100 100 100 100 93 75 62 75 89 85 70 67 82 85 92 93 93 93 94 96 97 98 94 87 76 64
21 24 38 39 53 55 59 54 56 40 32 30 27 39 84 100 100 100 100 84 100 92 67 64 70 79 73 71 90 90 99 100 100 100 100 95 85 79 81 76 70 62 61
100 100 100 100 100 99 81 80 79 58 38 35 34 100 100 100 100 100 100 100 100 88 85 68 72 80 100 100 100 100 100 100 100 99 92 94 84 75 67 70 69 60 58
100 100 100 100 100 100 97 82 68 54 61 58 55 100 92 100 100 100 100 100 100 97 84 86 94 90 78 100 100 96 89 86 87 86 74 70 66 66 71 66 57 56 52
100 100 100 100 100 100 100 100 100 100 49 72 75 83 98 92 100 100 88 77 80 76 73 80 87 95 90 68 54 74 70 73 65 66 68 69 74 83 67 59 50 46 50
70 99 100 100 100 100 100 100 95 100 100 100 95 69 71 72 85 68 86 64 63 57 65 83 94 78 62 62 61 59 60 73 69 61 66 80 69 62 59 55 58 59 56
73 80 83 86 93 100 100 100 100 85 74 79 87 90 100 99 87 72 80 70 45 69 92 79 65 64 56 55 68 72 59 51 56 72 74 71 63 56 61 67 63 55 46
88 91 83 96 92 79 93 99 100 88 81 78 86 86 100 90 87 86 71 50 46 54 63 83 76 64 62 64 61 55 60 67 70 70 65 61 63 72 67 60 53 44 37
98 94 83 66 88 100 84 98 81 74 64 60 71 76 74 66 57 57 50 59 61 57 62 79 75 50 46 48 50 55 65 65 66 64 64 73 66 60 58 52 43 37 28

GFSMW_250_rhum_183.txt.gz
RH
18 16 14 13 12 10 9 9 9 9 10 10 11 10 11 12 86 98 100 100 100 100 95 83 100 100 100 100 100 100 100 100 100 100 100 100 100 100 100 100 100 100 100
15 13 10 9 8 8 7 7 7 7 8 10 11 9 8 10 13 19 96 100 100 100 100 100 100 100 100 100 100 100 100 100 100 100 100 100 100 100 100 100 100 100 100
13 11 9 8 8 7 6 5 5 5 5 6 8 9 8 9 13 14 20 100 100 100 74 85 100 100 100 100 100 100 100 100 100 100 100 100 100 100 100 100 100 100 100
12 10 8 6 5 4 4 4 4 4 4 4 5 6 8 10 12 16 22 100 99 100 89 99 100 100 100 100 100 100 100 100 100 100 100 100 100 100 100 100 100 100 100
12 8 5 4 4 3 3 3 3 4 4 4 4 5 7 10 13 16 54 100 100 100 100 100 100 100 100 100 100 100 100 100 100 100 100 100 100 100 98 100 100 100 100
6 5 4 3 3 3 3 3 3 4 4 4 4 5 7 8 13 37 96 100 100 100 100 100 100 100 100 100 97 100 100 100 100 100 100 100 100 100 100 100 91 83 91
4 3 3 3 3 3 2 3 3 3 4 5 5 6 7 9 12 25 100 100 100 100 100 100 100 88 100 100 100 100 100 100 100 100 100 100 100 100 100 100 100 100 100
3 3 3 3 2 2 3 2 2 3 4 5 5 6 7 9 13 14 35 79 96 96 100 100 88 82 100 100 100 100 95 100 100 100 100 100 100 100 100 100 100 100 88
5 4 4 4 3 2 2 2 2 2 3 5 4 6 8 10 15 16 23 62 100 100 100 100 100 100 100 100 100 100 94 97 100 100 100 100 100 100 100 100 100 100 100
6 4 3 3 2 2 2 2 2 2 3 4 4 7 9 12 18 18 25 100 100 100 100 100 100 100 100 100 100 100 100 100 100 100 100 100 100 100 100 100 100 100 100
5 3 2 2 2 2 2 2 2 2 2 4 5 8 10 17 20 19 33 100 100 100 100 100 100 100 100 100 99 84 97 100 100 100 100 100 100 98 98 100 100 100 100
5 4 2 2 2 2 2 2 2 2 2 4 5 9 13 20 20 23 54 100 100 100 100 100 100 95 100 100 89 70 79 100 100 100 100 98 96 100 100 100 100 100 100
6 4 2 2 2 2 2 2 2 2 3 5 8 11 16 21 25 30 71 100 100 100 100 100 100 100 100 100 100 96 100 100 100 96 82 90 99 100 100 100 100 100 99
6 4 2 2 2 2 2 2 2 4 5 8 12 15 18 23 30 54 100 100 100 100 100 100 100 100 100 100 100 100 100 100 100 100 100 100 78 67 93 98 96 100 96
6 3 2 2 2 2 3 3 5 8 10 13 17 18 22 26 40 68 100 100 100 100 100 100 100 100 100 98 100 100 100 100 94 76 87 88 82 70 84 98 100 97 98
5 3 3 3 3 4 4 7 11 14 21 20 22 24 28 26 35 40 99 100 99 100 100 100 100 100 100 100 100 100 100 99 89 96 89 87 89 81 88 88 83 99 100
6 4 5 4 6 6 10 13 22 22 24 29 29 26 25 25 40 59 100 100 100 100 100 100 100 100 99 100 100 100 89 85 86 71 82 90 66 63 55 70 78 68 69
11 12 12 9 9 10 14 18 29 37 36 38 37 40 31 34 48 74 100 100 100 100 100 100 100 93 98 99 98 95 100 92 77 79 96 73 73 59 62 64 62 62 82
16 22 30 35 43 30 45 39 36 44 30 31 37 32 32 67 37 52 100 100 100 90 84 100 100 100 100 99 100 93 65 56 85 89 75 68 60 44 44 58 89 97 82
100 100 100 100 93 74 40 52 63 67 39 49 51 51 64 45 58 63 75 74 80 87 88 100 100 100 99 95 83 70 71 80 70 67 58 60 56 55 58 68 79 64 59
100 100 100 100 100 100 90 67 38 52 49 61 82 89 100 66 72 98 67 74 96 97 88 84 78 72 92 98 86 65 63 67 63 69 78 72 61 70 57 67 59 61 62
100 100 100 100 100 100 100 98 88 68 65 59 82 91 74 47 64 74 53 57 76 83 100 100 100 100 100 70 78 72 58 68 71 70 66 60 63 53 57 52 57 50 50
100 100 100 100 100 100 100 100 100 95 76 62 54 57 55 46 59 59 66 79 97 100 99 96 94 78 60 94 80 78 70 65 72 59 76 51 43 45 48 49 48 50 61
76 86 93 100 100 100 100 100 91 84 82 64 65 65 69 72 52 48 58 67 83 84 86 73 69 67 76 73 66 62 68 69 61 85 69 58 52 46 51 50 59 66 71
69 81 88 100 100 100 100 100 100 99 90 77 72 70 68 80 82 74 60 58 53 61 51 62 70 75 67 60 68 76 60 48 58 59 62 53 47 48 56 67 74 74 74
96 78 76 84 92 98 96 100 99 85 84 86 85 76 68 73 83 88 78 72 66 66 66 77 65 54 58 68 66 51 56 60 52 52 49 50 61 70 75 70 80 75 63

GFSMW_250_rhum_186.txt.gz
RH
23 25 22 20 22 22 20 21 19 16 14 14 14 14 15 15 15 14 14 54 100 100 100 100 100 100 100 100 100 100 100 100 100 100 100 100 100 100 100 100 100 100 100
17 18 17 16 15 15 14 13 13 12 10 10 11 11 12 14 15 14 15 15 84 100 100 100 100 100 100 100 100 100 100 100 100 100 100 100 100 100 100 100 100 100 100
12 13 13 13 12 11 10 10 10 10 9 8 9 11 11 12 14 15 15 16 16 87 98 99 100 100 100 100 100 100 100 100 100 100 100 100 100 100 100 100 100 100 100
12 12 11 10 9 9 9 9 8 8 8 8 8 9 10 10 13 14 13 14 16 62 100 100 100 100 100 100 100 100 100 100 100 100 100 100 100 100 100 100 100 97 94
11 10 9 8 8 6 6 6 6 6 5 5 5 6 7 9 12 14 12 13 15 21 100 100 100 100 100 98 83 100 100 100 100 100 100 100 100 100 100 100 100 100 85
9 9 11 11 9 7 5 4 3 3 3 3 3 4 4 5 8 12 13 12 14 20 100 100 100 100 100 100 100 100 100 100 100 100 100 100 100 100 100 100 100 100 98
12 10 7 5 4 4 3 3 3 3 2 2 2 3 4 4 5 7 11 12 13 40 95 100 100 100 100 100 100 100 100 100 100 100 100 100 100 100 100 100 100 100 99
8 6 4 4 4 4 5 4 3 2 2 2 2 3 4 4 5 6 8 11 14 20 76 91 100 100 100 100 100 100 100 100 100 100 100 100 99 100 100 100 100 100 95
5 4 3 3 3 4 4 3 3 2 2 2 3 3 4 4 5 6 6 11 15 17 29 40 83 100 100 100 100 90 94 88 100 100 100 100 100 100 100 100 100 100 96
7 7 5 4 3 3 2 2 2 2 2 2 3 4 4 4 5 6 7 11 14 29 23 51 100 100 100 100 100 100 97 100 100 100 100 100 100 100 100 100 84 83 82
6 6 5 4 5 3 2 2 2 2 2 2 3 4 4 5 6 6 8 10 17 22 24 100 100 100 100 100 100 100 100 100 100 100 100 100 100 84 91 100 84 79 90
7 7 6 5 4 2 2 2 2 2 2 2 3 3 4 6 6 6 9 12 18 21 26 100 100 100 100 100 100 100 100 100 100 100 100 100 88 93 100 100 100 98 92
8 7 6 3 2 2 2 2 2 2 2 2 3 4 5 7 7 8 11 12 17 22 96 100 100 100 100 100 100 100 100 100 100 100 100 100 99 96 100 100 100 80 70
7 4 3 2 2 2 2 2 2 2 2 3 4 6 7 8 9 12 14 16 19 22 100 100 100 100 100 100 100 100 100 100 100 100 99 91 96 100 92 81 76 91 95
5 3 2 2 2 2 2 3 3 4 4 5 7 8 9 11 14 18 17 19 24 82 100 100 100 100 100 100 100 100 100 100 100 100 100 100 96 80 98 94 79 94 94
5 4 3 3 3 4 3 4 4 6 8 9 10 12 13 15 17 18 20 22 31 100 100 100 100 100 100 100 100 100 100 100 100 100 93 100 100 100 86 81 91 94 73
6 7 6 4 4 5 5 7 10 10 14 14 13 18 20 20 21 22 22 30 42 70 100 100 100 100 100 100 100 100 100 100 100 100 100 100 100 86 76 71 68 80 79
13 14 13 12 11 10 11 13 14 15 16 14 20 25 25 23 23 26 30 44 50 56 92 100 100 100 100 100 100 100 100 100 100 100 100 100 97 78 79 94 78 69 71
50 63 53 36 29 33 39 31 28 25 22 24 25 34 40 39 32 33 49 86 100 100 100 100 100 100 100 100 100 100 100 100 100 95 100 93 82 99 91 81 68 66 63
100 100 100 100 98 64 46 43 41 33 44 40 36 42 43 39 30 44 60 100 100 100 100 100 100 100 100 100 100 100 100 100 94 95 98 83 84 99 88 77 65 52 55
100 100 100 97 100 96 84 100 62 74 67 71 56 58 51 56 34 52 100 100 100 100 100 100 100 100 100 100 100 100 99 92 90 93 97 92 98 95 81 78 51 79 75
100 100 99 100 100 100 99 90 88 100 100 100 58 67 73 74 47 45 100 100 91 79 84 97 95 100 100 100 100 97 92 97 100 100 100 97 88 70 64 53 75 67 58
89 100 100 100 100 100 85 100 99 95 100 100 100 99 78 81 46 39 53 82 100 100 100 100 97 100 86 87 100 100 100 100 100 87 84 81 69 52 66 73 55 50 59
83 92 100 100 100 100 100 99 84 90 100 93 100 100 99 83 98 90 76 70 68 85 91 96 100 100 100 100 100 100 87 90 78 59 58 60 59 68 63 50 55 63 60
88 78 91 100 100 100 100 100 100 99 100 100 89 100 100 88 88 86 57 53 53 76 88 84 80 87 92 81 74 75 73 61 51 44 49 60 68 52 55 56 56 56 60
100 99 100 85 100 100 100 100 98 92 93 100 100 96 88 99 99 80 68 60 60 57 57 53 52 55 54 57 52 42 42 42 50 61 50 45 56 57 55 59 62 61 63

GFSMW_250_rhum_189.txt.gz
RH
17 18 19 21 23 25 26 26 27 27 27 26 27 30 32 34 36 33 32 31 26 18 16 70 100 100 100 100 100 100 100 100 100 100 100 100 100 100 100 100 100 100 100
12 12 11 12 12 14 15 18 20 21 23 27 29 31 32 33 33 36 35 31 27 23 17 28 100 100 100 100 99 100 100 100 100 100 100 100 100 100 100 100 100 100 100
11 11 10 10 10 10 10 11 12 14 15 16 17 20 22 24 24 23 24 22 22 24 19 19 95 100 100 100 100 100 100 100 100 100 100 100 100 100 100 100 100 100 100
11 10 9 9 9 9 9 9 9 8 8 9 10 11 13 15 16 17 16 16 17 18 16 18 67 100 93 100 100 100 100 97 99 100 100 100 100 100 100 100 100 100 100
12 12 12 11 11 10 9 8 8 7 8 8 8 9 10 10 12 14 15 15 16 17 16 18 20 94 100 100 100 100 100 100 100 100 100 100 100 100 100 100 100 100 100
11 10 9 10 10 11 10 8 7 7 8 8 7 7 8 8 11 13 14 16 16 15 15 16 19 22 93 100 100 88 100 100 100 100 100 100 100 100 100 100 100 100 100
14 14 12 10 9 7 7 8 8 8 7 8 8 8 8 8 10 10 13 14 16 14 14 14 17 24 42 100 100 100 100 100 100 100 99 100 100 100 100 100 100 100 100
16 14 12 9 8 6 4 4 4 3 3 4 4 4 4 4 4 5 6 11 16 16 12 13 16 22 34 97 100 100 100 100 96 100 100 100 100 100 100 100 100 100 100
12 9 5 4 3 3 4 3 4 4 5 4 4 4 3 3 3 3 4 5 9 14 12 13 15 20 23 65 100 100 100 99 97 100 100 100 100 100 100 100 100 100 100
9 4 4 4 4 4 4 5 4 4 4 3 3 4 3 4 3 3 3 4 6 9 10 13 16 20 21 36 100 100 100 100 99 100 100 100 100 100 98 100 100 100 100
6 6 5 5 5 4 4 4 3 3 3 3 2 3 3 4 3 4 4 4 5 7 10 14 17 19 24 30 100 100 100 100 99 100 100 99 92 81 100 100 100 100 100
8 7 6 6 5 4 4 3 2 2 2 2 2 3 3 3 4 4 4 5 5 6 9 15 17 21 26 43 100 100 100 100 100 100 100 100 92 100 100 100 100 100 100
10 7 5 3 2 2 2 2 2 2 2 2 2 3 3 4 4 5 5 5 6 6 9 17 24 27 28 26 87 100 100 100 99 100 99 100 100 100 100 100 100 100 100
9 6 4 2 2 2 2 2 2 2 2 3 3 3 3 4 6 6 7 6 6 8 11 20 27 29 31 36 100 100 100 100 100 100 100 100 100 100 100 100 100 100 100
9 7 4 3 3 3 2 2 2 2 3 3 3 4 4 5 7 8 9 8 8 10 11 19 31 35 31 57 100 100 100 100 100 100 100 100 100 100 100 92 86 78 67
14 8 4 5 4 5 4 3 3 3 3 4 4 5 5 7 9 10 10 10 10 12 14 24 31 29 36 65 100 100 100 100 100 100 100 100 100 100 100 100 100 100 100
22 21 20 17 10 7 6 5 5 5 4 5 8 9 9 9 10 11 11 12 12 20 22 26 29 34 49 100 100 100 100 100 100 100 100 100 100 100 99 94 100 96 100
69 73 80 60 44 28 17 13 10 8 10 7 9 11 11 13 13 14 15 15 22 44 37 35 59 62 100 100 100 100 100 100 100 100 100 100 100 100 96 98 100 100 91
100 98 100 86 64 33 31 31 21 22 15 15 18 17 17 20 19 16 24 28 100 100 88 97 83 81 100 100 100 100 100 100 100 100 100 100 100 100 100 100 100 96 88
100 100 100 98 81 61 51 35 38 46 30 38 37 32 32 56 27 31 41 38 67 84 92 100 100 100 100 100 100 100 100 100 100 100 100 100 100 100 100 100 100 100 100
99 100 99 99 95 93 76 62 60 57 55 84 100 64 52 61 70 68 63 91 89 100 100 100 100 100 100 100 100 100 100 100 100 100 100 100 100 100 100 97 94 100 90
99 100 97 100 100 100 100 98 77 61 99 100 94 86 96 65 75 98 92 99 100 100 100 100 100 100 100 100 100 100 100 100 100 100 100 100 100 100 90 79 79 88 90
100 94 100 100 100 100 100 100 100 91 90 100 92 96 93 100 92 100 100 100 100 100 100 100 98 100 100 100 100 100 100 100 100 100 100 100 93 71 72 70 73 63 70
100 90 98 100 100 100 100 100 100 100 100 100 100 91 84 100 100 100 100 100 100 100 100 100 100 100 100 100 100 94 100 93 100 100 92 74 75 66 54 61 77 75 56
92 100 88 100 100 100 100 100 100 100 100 100 100 97 87 89 100 100 100 100 100 99 100 100 100 100 100 100 99 97 93 81 62 60 67 61 57 67 90 82 56 37 49
100 95 100 95 98 100 94 92 100 100 96 100 100 100 90 79 79 71 96 88 71 82 89 85 81 78 81 78 86 88 84 88 82 69 68 66 63 58 51 40 42 46 54

GFSMW_250_rhum_192.txt.gz
RH
12 12 12 14 16 16 16 16 19 20 18 17 19 22 26 35 41 45 46 44 47 41 31 25 38 87 79 100 100 100 100 97 71 100 100 100 100 100 100 99 100 100 100
12 10 10 9 9 10 10 11 15 18 19 20 22 20 18 19 22 25 25 29 30 29 26 24 21 20 28 88 100 95 100 89 85 100 100 100 100 100 100 100 100 100 100
11 10 10 9 8 8 9 9 10 10 11 14 17 21 25 28 25 25 27 27 26 25 26 27 25 24 21 23 28 26 98 100 94 99 100 100 100 100 100 100 100 100 100
11 11 10 9 9 8 8 9 9 9 10 10 10 12 19 28 31 30 27 27 30 30 30 29 30 30 29 33 29 31 58 100 80 100 100 100 100 100 100 100 100 100 100
10 11 11 11 11 10 9 8 7 7 8 8 9 10 11 12 18 25 28 31 33 34 33 32 33 35 36 35 30 34 33 98 100 100 99 100 100 100 100 100 100 100 100
11 10 11 11 11 11 10 9 8 7 6 7 7 8 9 10 10 12 15 20 26 30 34 35 37 39 38 38 31 26 30 73 100 92 96 100 100 100 100 100 100 100 100
11 12 13 12 11 10 10 8 7 7 6 6 6 7 7 8 10 10 11 12 15 19 24 29 33 34 33 31 27 26 28 44 98 100 100 100 91 100 83 100 100 100 100
12 12 11 12 11 9 7 6 6 7 7 7 7 7 7 7 8 9 9 10 12 12 15 16 19 22 21 23 24 25 32 31 97 100 100 100 100 100 100 100 100 100 100
13 14 10 12 8 5 4 4 3 4 4 4 5 6 7 9 11 9 10 11 11 12 12 14 16 18 19 20 21 24 35 28 89 100 100 100 100 100 93 85 100 100 100
14 18 14 7 4 3 4 4 3 3 4 3 4 4 4 5 5 6 7 10 12 12 13 13 13 15 18 19 23 23 31 27 62 100 100 100 100 100 100 100 100 100 100
18 12 5 5 4 5 4 4 4 4 5 4 4 5 6 6 6 5 6 6 6 6 9 13 16 15 15 17 22 25 23 34 35 100 100 100 100 100 100 100 100 100 100
14 6 6 7 5 3 2 2 2 3 4 4 5 5 5 5 6 5 4 6 8 7 6 6 10 13 14 19 24 28 29 30 39 39 81 100 100 100 100 100 100 100 100
12 14 9 6 4 2 2 2 2 2 2 2 2 3 3 4 4 4 5 7 9 8 6 5 5 7 12 21 22 25 29 35 48 35 37 91 100 100 100 100 100 100 100
25 17 10 5 4 3 3 2 2 2 2 2 2 2 2 2 3 4 5 7 7 6 6 5 5 5 9 19 22 28 31 37 43 29 40 100 100 100 100 100 100 100 100
39 28 10 5 7 5 4 3 3 2 2 2 2 2 3 3 4 4 5 5 5 6 7 6 6 8 11 19 20 27 33 39 32 38 44 100 100 100 100 98 100 100 100
46 36 18 19 15 20 19 6 5 5 3 3 2 3 3 3 3 4 4 6 9 12 11 11 9 9 12 16 24 33 37 34 40 37 55 100 100 100 100 100 100 100 100
57 43 54 62 58 38 26 27 13 10 8 4 3 3 4 4 4 5 9 12 12 13 15 12 12 14 14 22 31 38 41 38 39 52 100 100 100 100 100 100 100 100 100
62 57 61 83 70 58 42 30 26 21 15 13 7 4 6 6 6 8 11 12 12 13 16 19 23 30 20 28 41 45 46 48 50 75 100 100 100 100 100 100 100 100 100
64 64 72 95 90 82 48 46 37 48 25 23 16 13 10 9 10 12 12 13 13 16 16 20 44 50 27 34 62 53 47 52 58 100 100 100 100 100 100 100 100 100 100
69 80 88 99 86 91 89 71 82 67 61 55 29 20 20 16 13 15 16 23 26 31 71 99 100 78 42 46 74 100 91 90 83 100 100 100 100 100 100 100 100 100 100
76 83 85 100 100 98 97 89 100 96 100 67 67 41 38 40 42 54 73 78 82 100 100 100 100 100 100 100 100 93 95 100 95 100 100 100 100 100 100 100 100 100 96
68 82 89 100 98 100 100 100 99 100 100 100 100 99 88 78 96 100 100 100 100 100 100 100 100 100 100 100 100 100 100 100 100 100 100 100 100 100 100 100 100 100 100
76 80 94 100 100 99 100 100 100 100 100 100 100 100 100 100 100 100 100 100 100 100 100 100 100 100 100 100 100 100 100 100 100 100 100 100 100 100 100 100 100 93 99
88 83 90 100 100 100 100 100 82 100 100 100 100 100 100 100 100 100 100 100 100 100 100 100 100 100 100 100 100 100 100 100 100 100 100 100 100 100 100 100 99 100 100
100 80 92 100 100 100 100 100 100 100 90 99 100 100 100 100 100 100 100 100 100 100 100 100 100 100 100 100 100 100 100 100 100 100 100 100 100 100 100 100 98 88 73
99 100 84 94 100 100 100 100 100 100 100 100 100 100 100 100 100 100 100 100 100 100 100 100 100 100 100 100 100 100 100 100 100 95 89 91 92 93 87 77 60 47 60